Regional Weather Roundup
Issued by NWS

Home | Current Version | Previous Version | Text Only | Print | Product List | Glossary Off
Versions: 1 2 3 4 5 6 7 8 9 10 11 12 13 14 15 16 17 18 19 20 21 22 23 24 25 26 27 28 29 30 31 32 33 34 35 36 37 38 39 40 41 42 43 44 45 46 47 48 49 50

000
ASUS45 KABQ 291201
RWRNM
NEW MEXICO REGIONAL WEATHER ROUNDUP
NATIONAL WEATHER SERVICE ALBUQUERQUE NM
600 AM MDT SAT APR 29 2017

NOTE: "FAIR" MEANS FEW OR NO CLOUDS BELOW 12,000 FEET AGL WITH NO
       SIGNIFICANT WEATHER OR OBSTRUCTIONS TO VISION.

      THIS PRODUCT IS RELEASED AS TWO VERSIONS.  ONE VERSION NEAR
      THE TOP OF THE HOUR CONTAINING PRELIMINARY DATA FROM ALBUQUERQUE
      AND OTHER STATIONS.  A FINAL VERSION WITH ADDITIONAL DATA IS
      ISSUED ABOUT 10 MINUTES AFTER THE HOUR.

NMZ501-503-504-510>518-291300-
NORTHWEST PLATEAU/NORTHCENTRAL MOUNTAINS

CITY           SKY/WX    TMP DP  RH WIND       PRES   REMARKS
FARMINGTON     MOCLDY    31  30  96 W6        29.84S WCI  25
6HR MIN TEMP:  31; 6HR MAX TEMP:  35;

LOS ALAMOS     LGT SNOW  32  29  88 N3        29.80R
SANTA FE       SNOW      32  32 100 SW6       29.79R VSB 1/2 WCI  26
6HR MIN TEMP:  32; 6HR MAX TEMP:  37; 6HR PCP: TRACE;

TAOS             N/A     32  16  51 SE8       29.80S WCI  25
ANGEL FIRE     CLOUDY    23  16  73 NE26G33   29.87S WCI   7

$$
NMZ402-403-502-505>509-291300-
WESTCENTRAL MOUNTAINS/SOUTHWEST MOUNTAINS

CITY           SKY/WX    TMP DP  RH WIND       PRES   REMARKS
GALLUP         FAIR      21  17  84 NE5       29.88R WCI  15
6HR MIN TEMP:  20; 6HR MAX TEMP:  34;

GRANTS         FAIR      22  21  93 NW7       29.87S WCI  14
SILVER CITY    FAIR      41  22  46 NW9       29.79S

$$
NMZ407-409-411-412-291300-
SOUTHERN DESERTS

CITY           SKY/WX    TMP DP  RH WIND       PRES   REMARKS
DEMING         CLOUDY    46  36  68 SW5       29.81S
6HR MIN TEMP:  45; 6HR MAX TEMP:  58; 6HR PCP: TRACE;

LAS CRUCES     CLOUDY    45  39  77 E3        29.81F
ALAMOGORDO     FAIR      48  36  61 CALM      29.82R
T OR C         MOCLDY    41  34  76 NW6       29.82R
6HR MIN TEMP:  40; 6HR MAX TEMP:  44; 6HR PCP:  0.01;


$$
NMZ519>523-291300-
CENTRAL VALLEYS/CENTRAL HIGHLANDS

CITY           SKY/WX    TMP DP  RH WIND       PRES   REMARKS
ALBUQUERQUE    LGT RAIN  37  33  85 W5        29.84R WCI  33
6HR MIN TEMP:  37; 6HR MAX TEMP:  39; 6HR PCP: TRACE;

DOUBLE EAGLE   LGT SNOW  37  30  75 CALM      29.83  VSB 3/4
MORIARTY ARPT  CLOUDY    35  35  99 SE8       29.81F WCI  29
6HR MIN TEMP:  34; 6HR MAX TEMP:  35; 6HR PCP:  0.02;

CLINES CORNERS LGT SNOW  29  27  92 E20G32    29.80F FOG     WCI  16
6HR MIN TEMP:  29; 6HR MAX TEMP:  32; 6HR PCP:  0.05;

BELEN          CLOUDY    37  37 100 CALM      29.83S
6HR MIN TEMP:  35; 6HR MAX TEMP:  38;

SOCORRO        NOT AVBL

$$
NMZ524>526-539-540-291300-
SOUTHCENTRAL MOUNTAINS

CITY           SKY/WX    TMP DP  RH WIND       PRES   REMARKS
RUIDOSO        NOT AVBL

$$
NMZ527>531-291300-
NORTHEAST HIGHLANDS/NORTHEAST PLAINS

CITY           SKY/WX    TMP DP  RH WIND       PRES   REMARKS
LAS VEGAS      LGT SNOW  27  26  96 NE15      29.87R VSB 3/4 WCI  15
6HR MIN TEMP:  27; 6HR MAX TEMP:  35; 6HR PCP:  0.09;

RATON          LGT SNOW  28  23  81 N23G30    29.90S VSB 1   WCI  14
6HR MIN TEMP:  28; 6HR MAX TEMP:  36; 6HR PCP:  0.01;

CLAYTON        FOG       29  29 100 N23G39    29.92R VSB 1   WCI  15
6HR MIN TEMP:  29; 6HR MAX TEMP:  39; 6HR PCP:  0.37;


$$
NMZ532>537-291300-
EASTCENTRAL PLAINS

CITY           SKY/WX    TMP DP  RH WIND       PRES   REMARKS
SANTA ROSA     LGT SNOW  32  32 100 NE16G24   29.87R WCI  22
TUCUMCARI      LGT SNOW  35  33  92 N21G31    29.89R FOG     WCI  24
6HR MIN TEMP:  35; 6HR MAX TEMP:  47; 6HR PCP:  0.72;

CANNON AFB     HVY RAIN  43  43 100 N18       29.81R
CLOVIS AIRPORT CLOUDY    43  36  75 N23G32    29.81R

$$
NMZ028-029-538-291300-
SOUTHEAST PLAINS

CITY           SKY/WX    TMP DP  RH WIND       PRES   REMARKS
ROSWELL        RAIN      44  41  89 N13         N/A
6HR MIN TEMP:  44; 6HR MAX TEMP:  51; 6HR PCP:  0.09;

ARTESIA        RAIN      45  45 100 N21G28    29.86R
CARLSBAD       CLOUDY    49  41  74 NW23G30   29.81R
6HR MIN TEMP:  48; 6HR MAX TEMP:  58; 6HR PCP: TRACE;

HOBBS          CLOUDY    48  39  71 N24G30    29.76R


$$



USA.gov is the U.S. government's official web portal to all federal, state and local government web resources and services.